• In Belarus
  • List of Countries
  • For 7 days
  • Water Temperature
  • Satellite Maps
  • Weather Map
  • Weather Widgets
  • user-avatar
    Login

    Hourly Weather Konstantyna

    Today, 21 May, Monday

    Time Temperature Precipitation Wind Pressure Humidity
    00:00 +14°C° 0.2 mm 1 mps 706 mmHg 94%
    01:00 +14°C° 0.1 mm 1 mps 706 mmHg 94%
    02:00 +14°C° 0.1 mm 1 mps 706 mmHg 94%
    03:00 +14°C° 0.1 mm 1 mps 706 mmHg 94%
    04:00 +14°C° 0 mm 1 mps 706 mmHg 92%
    05:00 +15°C° 0 mm 1 mps 706 mmHg 90%
    06:00 +15°C° 0 mm 1 mps 706 mmHg 87%
    07:00 +18°C° 0 mm 1 mps 707 mmHg 81%
    08:00 +20°C° 0 mm 1 mps 707 mmHg 74%
    09:00 +21°C° 0 mm 1 mps 707 mmHg 67%
    10:00 +21°C° 0.2 mm 2 mps 707 mmHg 64%
    11:00 +21°C° 0.2 mm 2 mps 707 mmHg 62%
    12:00 +23°C° 0.2 mm 2 mps 707 mmHg 60%
    13:00 +22°C° 0.3 mm 3 mps 707 mmHg 62%
    14:00 +21°C° 0.3 mm 3 mps 707 mmHg 64%
    15:00 +21°C° 0.3 mm 3 mps 707 mmHg 66%
    16:00 +20°C° 0.4 mm 3 mps 707 mmHg 71%
    17:00 +19°C° 0.4 mm 3 mps 707 mmHg 76%
    18:00 +18°C° 0.4 mm 2 mps 707 mmHg 81%
    19:00 +17°C° 0.3 mm 2 mps 707 mmHg 85%
    20:00 +18°C° 0.3 mm 1 mps 707 mmHg 89%
    21:00 +16°C° 0.3 mm 1 mps 707 mmHg 93%
    22:00 +16°C° 0.1 mm 1 mps 707 mmHg 93%
    23:00 +15°C° 0.1 mm 1 mps 707 mmHg 93%

    Tomorrow, 22 May, Tuesday

    Time Temperature Precipitation Wind Pressure Humidity
    00:00 +15°C° 0.1 mm 1 mps 707 mmHg 93%
    01:00 +15°C° 0.2 mm 1 mps 707 mmHg 93%
    02:00 +15°C° 0.2 mm 1 mps 707 mmHg 94%
    03:00 +15°C° 0.2 mm 1 mps 707 mmHg 94%
    04:00 +15°C° 0.3 mm 1 mps 707 mmHg 92%
    05:00 +16°C° 0.3 mm 1 mps 707 mmHg 90%
    06:00 +16°C° 0.3 mm 1 mps 708 mmHg 88%
    07:00 +18°C° 0.7 mm 1 mps 708 mmHg 84%
    08:00 +19°C° 0.7 mm 1 mps 708 mmHg 81%
    09:00 +19°C° 0.7 mm 1 mps 709 mmHg 77%
    10:00 +20°C° 0.7 mm 1 mps 709 mmHg 73%
    11:00 +20°C° 0.7 mm 2 mps 709 mmHg 69%
    12:00 +21°C° 0.7 mm 2 mps 709 mmHg 66%
    13:00 +21°C° 0.7 mm 2 mps 709 mmHg 64%
    14:00 +21°C° 0.7 mm 3 mps 709 mmHg 62%
    15:00 +22°C° 0.7 mm 3 mps 709 mmHg 60%
    16:00 +21°C° 0 mm 3 mps 709 mmHg 66%
    17:00 +20°C° 0 mm 3 mps 709 mmHg 72%
    18:00 +19°C° 0 mm 3 mps 709 mmHg 77%
    19:00 +18°C° 0 mm 2 mps 710 mmHg 82%
    20:00 +18°C° 0 mm 1 mps 710 mmHg 88%
    21:00 +15°C° 0 mm 1 mps 711 mmHg 93%
    22:00 +15°C° 0 mm 1 mps 711 mmHg 93%
    23:00 +15°C° 0 mm 1 mps 711 mmHg 93%

    Day after tomorrow, 23 May, Wednesday

    Time Temperature Precipitation Wind Pressure Humidity
    00:00 +14°C° 0 mm 1 mps 711 mmHg 94%
    01:00 +14°C° 0 mm 1 mps 711 mmHg 93%
    02:00 +14°C° 0 mm 1 mps 710 mmHg 92%
    03:00 +14°C° 0 mm 1 mps 710 mmHg 91%
    04:00 +15°C° 0 mm 1 mps 711 mmHg 87%
    05:00 +16°C° 0 mm 1 mps 711 mmHg 83%
    06:00 +18°C° 0 mm 1 mps 711 mmHg 78%
    07:00 +18°C° 0 mm 0 mps 712 mmHg 68%
    08:00 +20°C° 0 mm 0 mps 712 mmHg 58%
    09:00 +21°C° 0 mm 0 mps 713 mmHg 48%
    10:00 +24°C° 0 mm 1 mps 713 mmHg 43%
    11:00 +26°C° 0 mm 1 mps 713 mmHg 39%
    12:00 +27°C° 0 mm 2 mps 713 mmHg 34%
    13:00 +27°C° 0 mm 2 mps 713 mmHg 36%
    14:00 +27°C° 0 mm 3 mps 712 mmHg 38%
    15:00 +27°C° 0 mm 3 mps 712 mmHg 40%
    16:00 +26°C° 0 mm 3 mps 712 mmHg 48%
    17:00 +24°C° 0 mm 3 mps 712 mmHg 56%
    18:00 +23°C° 0 mm 2 mps 712 mmHg 64%
    19:00 +20°C° 0 mm 2 mps 712 mmHg 70%
    20:00 +19°C° 0 mm 2 mps 712 mmHg 76%
    21:00 +19°C° 0 mm 1 mps 712 mmHg 82%
    22:00 +19°C° 0 mm 1 mps 712 mmHg 82%
    23:00 +18°C° 0 mm 1 mps 712 mmHg 81%

    24 May, Thursday

    Time Temperature Precipitation Wind Pressure Humidity
    00:00 +18°C° 0 mm 1 mps 711 mmHg 81%
    01:00 +18°C° 0 mm 1 mps 711 mmHg 80%
    02:00 +18°C° 0 mm 1 mps 711 mmHg 79%
    03:00 +18°C° 0 mm 1 mps 710 mmHg 77%
    04:00 +19°C° 0 mm 1 mps 711 mmHg 72%
    05:00 +20°C° 0 mm 1 mps 711 mmHg 67%
    06:00 +22°C° 0 mm 1 mps 711 mmHg 61%
    07:00 +24°C° 0 mm 1 mps 711 mmHg 55%
    08:00 +26°C° 0 mm 1 mps 712 mmHg 49%
    09:00 +28°C° 0 mm 1 mps 712 mmHg 43%
    10:00 +29°C° 0 mm 2 mps 712 mmHg 40%
    11:00 +30°C° 0 mm 2 mps 712 mmHg 38%
    12:00 +31°C° 0 mm 3 mps 712 mmHg 35%
    13:00 +31°C° 0 mm 3 mps 711 mmHg 36%
    14:00 +31°C° 0 mm 3 mps 711 mmHg 37%
    15:00 +31°C° 0 mm 3 mps 711 mmHg 38%
    16:00 +30°C° 0 mm 3 mps 710 mmHg 46%
    17:00 +28°C° 0 mm 3 mps 710 mmHg 53%
    18:00 +26°C° 0 mm 2 mps 710 mmHg 61%
    19:00 +25°C° 0 mm 2 mps 710 mmHg 66%
    20:00 +24°C° 0 mm 1 mps 710 mmHg 70%
    21:00 +22°C° 0 mm 1 mps 710 mmHg 75%
    22:00 +22°C° 0 mm 1 mps 710 mmHg 75%
    23:00 +22°C° 0 mm 1 mps 710 mmHg 75%

    25 May, Friday

    Time Temperature Precipitation Wind Pressure Humidity
    00:00 +21°C° 0 mm 1 mps 710 mmHg 75%
    01:00 +21°C° 0 mm 1 mps 709 mmHg 73%
    02:00 +21°C° 0 mm 1 mps 709 mmHg 71%
    03:00 +21°C° 0 mm 1 mps 709 mmHg 69%
    04:00 +22°C° 0 mm 1 mps 709 mmHg 66%
    05:00 +24°C° 0 mm 2 mps 709 mmHg 63%
    06:00 +25°C° 0 mm 2 mps 709 mmHg 60%
    07:00 +27°C° 0 mm 2 mps 710 mmHg 51%
    08:00 +29°C° 0 mm 2 mps 710 mmHg 43%
    09:00 +31°C° 0 mm 2 mps 710 mmHg 35%
    10:00 +32°C° 0 mm 2 mps 710 mmHg 30%
    11:00 +33°C° 0 mm 1 mps 711 mmHg 26%
    12:00 +34°C° 0 mm 1 mps 711 mmHg 22%
    13:00 +35°C° 0 mm 2 mps 710 mmHg 24%
    14:00 +35°C° 0 mm 2 mps 710 mmHg 26%
    15:00 +35°C° 0 mm 3 mps 710 mmHg 27%
    16:00 +33°C° 0 mm 3 mps 709 mmHg 35%
    17:00 +30°C° 0 mm 3 mps 709 mmHg 42%
    18:00 +28°C° 0 mm 3 mps 709 mmHg 50%
    19:00 +27°C° 0 mm 3 mps 709 mmHg 52%
    20:00 +25°C° 0 mm 2 mps 709 mmHg 55%
    21:00 +24°C° 0 mm 2 mps 709 mmHg 57%
    22:00 +23°C° 0 mm 2 mps 709 mmHg 55%
    23:00 +23°C° 0 mm 2 mps 709 mmHg 52%

    26 May, Saturday

    Time Temperature Precipitation Wind Pressure Humidity
    00:00 +23°C° 0 mm 2 mps 709 mmHg 50%
    01:00 +21°C° 0 mm 2 mps 708 mmHg 47%
    02:00 +21°C° 0 mm 2 mps 708 mmHg 45%
    03:00 +21°C° 0 mm 2 mps 708 mmHg 43%
    04:00 +23°C° 0 mm 2 mps 709 mmHg 44%
    05:00 +24°C° 0 mm 2 mps 709 mmHg 44%
    06:00 +25°C° 0 mm 2 mps 709 mmHg 45%
    07:00 +27°C° 0 mm 2 mps 709 mmHg 39%
    08:00 +30°C° 0 mm 2 mps 710 mmHg 33%
    09:00 +32°C° 0 mm 2 mps 710 mmHg 27%
    10:00 +34°C° 0 mm 2 mps 710 mmHg 25%
    11:00 +35°C° 0 mm 2 mps 710 mmHg 23%
    12:00 +36°C° 0 mm 2 mps 710 mmHg 20%
    13:00 +36°C° 0 mm 3 mps 710 mmHg 21%
    14:00 +36°C° 0 mm 3 mps 709 mmHg 23%
    15:00 +36°C° 0 mm 3 mps 709 mmHg 24%
    16:00 +35°C° 0 mm 3 mps 709 mmHg 30%
    17:00 +33°C° 0 mm 3 mps 709 mmHg 37%
    18:00 +30°C° 0 mm 3 mps 708 mmHg 44%
    19:00 +29°C° 0 mm 2 mps 708 mmHg 45%
    20:00 +27°C° 0 mm 2 mps 708 mmHg 46%
    21:00 +26°C° 0 mm 2 mps 709 mmHg 48%
    22:00 +26°C° 0 mm 2 mps 708 mmHg 47%
    23:00 +25°C° 0 mm 2 mps 708 mmHg 46%
    Show more